Regional Weather Roundup
Issued by NWS

Home | Current Version | Previous Version | Graphics & Text | Print | Product List | Glossary Off
Versions: 1 2 3 4 5 6 7 8 9 10 11 12 13 14 15 16 17 18 19 20 21 22 23 24 25 26 27 28 29 30 31 32 33 34 35 36 37 38 39 40 41 42 43 44 45 46 47 48 49 50

000
ASUS43 KMKX 012113
RWRWI

WISCONSIN REGIONAL WEATHER ROUNDUP
NATIONAL WEATHER SERVICE MILWAUKEE/SULLIVAN WI
400 PM CDT MON JUN 01 2015

NOTE: "FAIR" INDICATES FEW OR NO CLOUDS BELOW 12,000 FEET WITH NO
SIGNIFICANT WEATHER AND/OR OBSTRUCTIONS TO VISIBILITY.

WIZ001-002-006>008-014>016-023>028-012200-
NORTHWEST WISCONSIN

CITY           SKY/WX    TMP DP  RH WIND       PRES   REMARKS
SUPERIOR ARPT  SUNNY     51  37  58 NE10G16   30.23F
ASHLAND        SUNNY     60  38  43 NE13      30.23F
HAYWARD        MOSUNNY   68  31  25 SE9       30.19F
SIREN          SUNNY     68  33  27 S9        30.19F
CUMBERLAND     SUNNY     63  37  39 S8G16     30.21F
RICE LAKE      SUNNY     67  37  32 SE10G17   30.22F
CHETEK         SUNNY     66  44  44 E7        30.21F
LADYSMITH      MOSUNNY   67  39  35 SE13      30.23F
EAU CLAIRE     SUNNY     69  40  34 SE13      30.19F
MENOMONIE      SUNNY     69  39  34 SE9G17    30.20F
NEW RICHMOND   SUNNY     66  40  37 S6G17     30.19F
OSCEOLA        SUNNY     68  39  34 E12G17    30.21F
$$

WIZ003>005-009-010-017-018-012200-
NORTH CENTRAL WISCONSIN

CITY           SKY/WX    TMP DP  RH WIND       PRES   REMARKS
MANITOWISH WTR SUNNY     66  35  31 S8        30.23F
ARBOR VITAE    SUNNY     67  29  24 S9        30.23F
WOODRUFF       SUNNY     67  29  24 S9        30.23F
RHINELANDER    SUNNY     66  31  27 VRB6      30.24F
EAGLE RIVER    SUNNY     65  20  18 S6        30.23F
LAND O LAKES   SUNNY     68  24  19 S7        30.24F
PHILLIPS       SUNNY     67  37  33 S10       30.22F
TOMAHAWK       SUNNY     66  32  28 SE7       30.24F
MEDFORD        SUNNY     64  44  48 S8        30.24F
MERRILL        SUNNY     65  34  32 S9        30.25F
$$

WIZ029-030-035-036-043>047-012200-
CENTRAL WISCONSIN

CITY           SKY/WX    TMP DP  RH WIND       PRES   REMARKS
WAUSAU         SUNNY     65  36  34 E8        30.22F
MOSINEE        NOT AVBL
MARSHFIELD     SUNNY     66  38  35 E10       30.23F
STEVENS POINT  SUNNY     63  34  33 SE7       30.25F
WAUPACA        SUNNY     67  34  29 E8G16     30.25F
WAUTOMA        NOT AVBL
WISC RAPIDS    SUNNY     67  28  23 SE10G17   30.24F
CAMP DOUGLAS   NOT AVBL
$$

WIZ011>013-019>022-031-037>040-048>050-012200-
NORTHEAST WISCONSIN

CITY           SKY/WX    TMP DP  RH WIND       PRES   REMARKS
ANTIGO         SUNNY     62  34  34 SE9       30.26F
SHAWANO        SUNNY     65  34  31 E6        30.27F
OCONTO         SUNNY     62  37  39 E7        30.27F
STURGEON BAY   SUNNY     59  37  44 NE13      30.29F
GREEN BAY      SUNNY     64  40  41 NE8       30.26F
MANITOWOC      NOT AVBL
APPLETON       MOSUNNY   63  30  29 E9        30.26F
CLINTONVILLE   SUNNY     64  34  32 S6        30.26F
OSHKOSH        SUNNY     64  36  35 NE10      30.24F
$$

WIZ032>034-041-042-053>061-012200-
SOUTHWEST WISCONSIN

CITY           SKY/WX    TMP DP  RH WIND       PRES   REMARKS
LA CROSSE      SUNNY     71  39  31 SE10      30.19F
SPARTA         SUNNY     69  31  24 SE9       30.22F
VIROQUA        SUNNY     67  32  27 SE9       30.21F
BOSCOBEL       SUNNY     71  38  29 VRB6      30.20F
PRAIRIE DU CHI SUNNY     69  35  28 E5        30.19S
PLATTEVILLE    SUNNY     67  41  38 E6G16     30.20S
$$

WIZ056-057-062-063-064-067-068-012200-
SOUTH CENTRAL WISCONSIN

CITY           SKY/WX    TMP DP  RH WIND       PRES   REMARKS
REEDSBURG      SUNNY     65  38  36 E8        30.21F
BARABOO/DELLS  SUNNY     65  37  34 E10       30.22F
LONE ROCK      NOT AVBL
MINERAL POINT  SUNNY     68  34  28 E10G16    30.21S
MADISON        MOSUNNY   66  32  28 NE15      30.21F
MIDDLETON      SUNNY     67  33  28 E10G17    30.22F
WATERTOWN      SUNNY    N/A N/A N/A E6        30.23S
MONROE         SUNNY     64  41  42 E10G17    30.20F
JANESVILLE     SUNNY     68  37  32 E12G17    30.20F
$$

WIZ051-052-058>065-066-070>072-012200-
SOUTHEAST WISCONSIN

CITY           SKY/WX    TMP DP  RH WIND       PRES   REMARKS
MILWAUKEE      MOSUNNY   56  35  45 N14       30.25F
WAUKESHA       SUNNY     59  32  36 E9        30.25S
MILWAUKEE/TIMM SUNNY     55  27  33 N9        30.26S
RACINE         SUNNY     55  37  50 N14       30.26F
BURLINGTON     SUNNY     58  34  39 NE10G20   30.23F
KENOSHA        SUNNY     60  40  47 NE14      30.23F
FOND DU LAC    SUNNY     65  31  28 E7        30.24F
SHEBOYGAN      SUNNY     59  37  44 NE14      30.26F
WEST BEND      SUNNY     61  34  36 E12       30.25S
JUNEAU         SUNNY     64  35  34 E9G17     30.24F
$$

LSZ147-162-012200-
LAKE SUPERIOR

STATION/POSITION TIME  TEMP    WIND        PRES    WAVE
                       AIR SEA DIR/SP/G            HT/PER
                 (UTC) (F)     (DEG/KT/KT) (MB)    (FT/S)
W MID LAKE BUOY  1950   39 37   30/  8/  8   N/A     0
DEVILS ISLAND    2000   42      50/ 11/ 13   N/A
PORT WING        2000   43      30/ 18/ 22   N/A
SAXON HARBOR     2000   50      40/  9/ 10   N/A
$$

LMZ867-665-643>646-012200-
LAKE MICHIGAN

STATION/POSITION TIME  TEMP    WIND        PRES    WAVE
                       AIR SEA DIR/SP/G            HT/PER
                 (UTC) (F)     (DEG/KT/KT) (MB)    (FT/S)
CHAMBERS ISLAND  1900   54      10/  7/  8   N/A
N MID LAKE BUOY  1950   41 37  360/  4/  4   N/A     0
NORTHPORT PIER   1900   49     130/  5/  6   N/A
SISTER BAY       2048   65     110/  9/ 12   N/A
ALGOMA LAKESHORE 2024           70/ 12/ 13   N/A
KEWAUNEE LAKESHO 2000   51      30/  8/ 11   N/A
SHEBOYGAN LAKESH 2000   47      10/  7/  8   N/A
PORT WASHINGTON  1900   50      40/  7/  9   N/A
ATWATER BUOY     2000   45      10/ 10/ 12   N/A
MILWAUKEE LAKESH 2000   46      30/ 13/ 15   N/A
S MID LAKE BUOY  1950   41 39  340/ 10/ 12   N/A     1/ 3
KENOSHA   LAKESH 2000   48      20/ 13/ 15   N/A
$$

TC  - TEMPERATURE IN CELSIUS
VSB - VISIBILITY IN STATUTE MILES
WCI - WIND CHILL INDEX
HX  - HEAT INDEX



USA.gov is the U.S. government's official web portal to all federal, state and local government web resources and services.